Weather History for Artesia, NM

Change the Weather History Date:

Tuesday, October 11, 2011

  Actual Average Record
Temperature  
Mean Temperature 66 °F -  
Max Temperature 84 °F 79 °F 95 °F (1962)
Min Temperature 48 °F 43 °F 33 °F (1976)
Cooling Degree Days 1    
Growing Degree Days 16 (Base 50)    
Moisture  
Dew Point 44 °F    
Average Humidity 57    
Maximum Humidity 100    
Minimum Humidity 14    
Precipitation  
Precipitation 0.00 in - - ()
Sea Level Pressure  
Sea Level Pressure 29.90 in    
Wind  
Wind Speed 7 mph (SSE)    
Max Wind Speed 12 mph    
Max Gust Speed -    
Visibility 10 miles    
Events Fog    
Averages and records for this station are not official NWS values.
T = Trace of Precipitation, MM = Missing Value Source: NWS Daily Summary

Daily Weather History Graph

Daily Weather History Graph

Search for Another Location

Airport:

Trip Planner

Search our weather history database for the weather conditions in past years. The results will help you decide how hot, cold, wet, or windy it might be!

Date:

Astronomy

Oct. 11, 2011 Rise Set
Actual Time 6:58 AM MDT 6:29 PM MDT
Civil Twilight 6:34 AM MDT 6:54 PM MDT
Nautical Twilight 6:05 AM MDT 7:23 PM MDT
Astronomical Twilight 5:36 AM MDT 7:51 PM MDT
Moon 6:06 PM MDT (10/11) 6:37 AM MDT (10/11)
Length of Visible Light 12h 20m
Length of Day
11h 30m
Full, 100% of the Moon is Illuminated
Oct 11
Full
Oct 11
Full
Oct 19
Last Quarter
Oct 26
New
Nov 2
First Quarter

Hourly Weather History & Observations

Time (MDT) Temp. Dew Point Humidity Pressure Visibility Wind Dir Wind Speed Gust Speed Precip Events Conditions
12:15 AM 57.2 °F 44.6 °F 63% 29.98 in 10.0 mi SSE 6.9 mph - N/A   Clear
12:35 AM 55.4 °F 44.6 °F 67% 29.98 in 10.0 mi SSE 8.1 mph - N/A   Clear
12:55 AM 55.4 °F 44.6 °F 67% 29.97 in 10.0 mi SE 9.2 mph - N/A   Clear
1:15 AM 55.4 °F 44.6 °F 67% 29.97 in 10.0 mi SSE 8.1 mph - N/A   Clear
1:35 AM 53.6 °F 44.6 °F 72% 29.97 in 10.0 mi SSE 9.2 mph - N/A   Clear
1:55 AM 53.6 °F 44.6 °F 72% 29.96 in 10.0 mi SSE 9.2 mph - N/A   Clear
2:15 AM 53.6 °F 44.6 °F 72% 29.96 in 10.0 mi SSE 6.9 mph - N/A   Clear
2:35 AM 51.8 °F 44.6 °F 76% 29.96 in 10.0 mi SSE 8.1 mph - N/A   Clear
2:55 AM 51.8 °F 44.6 °F 76% 29.95 in 10.0 mi SSE 5.8 mph - N/A   Clear
3:15 AM 51.8 °F 44.6 °F 76% 29.95 in 10.0 mi SSE 6.9 mph - N/A   Clear
3:35 AM 50.0 °F 44.6 °F 82% 29.94 in 10.0 mi SSE 9.2 mph - N/A   Clear
3:55 AM 51.8 °F 46.4 °F 82% 29.95 in 10.0 mi SE 8.1 mph - N/A   Clear
4:15 AM 51.8 °F 46.4 °F 82% 29.95 in 10.0 mi SW 5.8 mph - N/A   Clear
4:35 AM 53.6 °F 48.2 °F 82% 29.95 in 10.0 mi SSW 6.9 mph - N/A   Clear
4:55 AM 53.6 °F 48.2 °F 82% 29.95 in 10.0 mi South 5.8 mph - N/A   Clear
5:15 AM 51.8 °F 48.2 °F 88% 29.95 in 10.0 mi South 5.8 mph - N/A   Clear
5:35 AM 50.0 °F 46.4 °F 87% 29.95 in 10.0 mi South 6.9 mph - N/A   Clear
5:55 AM 48.2 °F 44.6 °F 87% 29.95 in 10.0 mi SSW 3.5 mph - N/A   Clear
6:15 AM 50.0 °F 44.6 °F 82% 29.95 in 10.0 mi South 4.6 mph - N/A   Clear
6:35 AM 48.2 °F 44.6 °F 87% 29.95 in 10.0 mi Calm Calm - N/A   Clear
6:55 AM 50.0 °F 44.6 °F 82% 29.95 in 10.0 mi SSW 3.5 mph - N/A   Mostly Cloudy
7:15 AM 50.0 °F 46.4 °F 87% 29.95 in 10.0 mi South 3.5 mph - N/A   Overcast
7:35 AM 53.6 °F 50.0 °F 88% 29.95 in 5.0 mi SSE 9.2 mph - N/A   Overcast
7:55 AM 53.6 °F 53.6 °F 100% 29.96 in 0.2 mi South 5.8 mph - N/A Fog Fog
8:15 AM 53.6 °F 53.6 °F 100% 29.96 in 2.5 mi South 6.9 mph - N/A   Overcast
8:55 AM 53.6 °F 53.6 °F 100% 29.97 in 5.0 mi SE 6.9 mph - N/A   Mostly Cloudy
9:15 AM 55.4 °F 53.6 °F 94% 29.97 in 9.0 mi SE 5.8 mph - N/A   Partly Cloudy
9:35 AM 57.2 °F 53.6 °F 88% 29.97 in 10.0 mi SSE 6.9 mph - N/A   Clear
9:55 AM 59.0 °F 53.6 °F 82% 29.96 in 10.0 mi SSE 8.1 mph - N/A   Clear
10:15 AM 62.6 °F 53.6 °F 72% 29.96 in 10.0 mi SSE 9.2 mph - N/A   Clear
10:35 AM 64.4 °F 51.8 °F 64% 29.95 in 10.0 mi SE 9.2 mph - N/A   Clear
10:55 AM 66.2 °F 53.6 °F 64% 29.94 in 10.0 mi SSE 10.4 mph - N/A   Clear
11:15 AM 68.0 °F 51.8 °F 56% 29.94 in 10.0 mi SSE 6.9 mph - N/A   Clear
11:35 AM 69.8 °F 51.8 °F 53% 29.92 in 10.0 mi South 9.2 mph - N/A   Clear
11:55 AM 71.6 °F 50.0 °F 46% 29.92 in 10.0 mi SSE 8.1 mph - N/A   Clear
12:15 PM 73.4 °F 50.0 °F 44% 29.90 in 10.0 mi ESE 6.9 mph - N/A   Clear
12:35 PM 73.4 °F 48.2 °F 41% 29.89 in 10.0 mi SE 8.1 mph - N/A   Clear
12:55 PM 75.2 °F 48.2 °F 38% 29.87 in 10.0 mi ESE 8.1 mph - N/A   Clear
1:15 PM 77.0 °F 44.6 °F 32% 29.86 in 10.0 mi East 8.1 mph - N/A   Clear
1:35 PM 80.6 °F 39.2 °F 23% 29.85 in 10.0 mi ESE 5.8 mph - N/A   Clear
2:15 PM 80.6 °F 37.4 °F 21% 29.82 in 10.0 mi East 9.2 mph - N/A   Clear
2:35 PM 80.6 °F 37.4 °F 21% 29.81 in 10.0 mi SE 8.1 mph - N/A   Clear
2:55 PM 82.4 °F 37.4 °F 20% 29.80 in 10.0 mi East 6.9 mph - N/A   Clear
3:15 PM 82.4 °F 37.4 °F 20% 29.79 in 10.0 mi East 9.2 mph - N/A   Clear
3:55 PM 84.2 °F 35.6 °F 18% 29.78 in 10.0 mi ENE 9.2 mph - N/A   Clear
4:15 PM 84.2 °F 32.0 °F 15% 29.77 in 10.0 mi East 8.1 mph - N/A   Clear
4:55 PM 84.2 °F 32.0 °F 15% 29.78 in 10.0 mi ENE 9.2 mph - N/A   Clear
5:35 PM 82.4 °F 28.4 °F 14% 29.77 in 10.0 mi East 5.8 mph - N/A   Clear
5:55 PM 82.4 °F 32.0 °F 16% 29.78 in 10.0 mi East 3.5 mph - N/A   Clear
6:15 PM 80.6 °F 30.2 °F 16% 29.78 in 10.0 mi NW 5.8 mph - N/A   Clear
6:35 PM 77.0 °F 35.6 °F 22% 29.79 in 10.0 mi NNE 9.2 mph - N/A   Clear
6:55 PM 75.2 °F 33.8 °F 22% 29.80 in 10.0 mi NNE 4.6 mph - N/A   Clear
7:15 PM 75.2 °F 35.6 °F 24% 29.81 in 10.0 mi North 6.9 mph - N/A   Clear
7:35 PM 73.4 °F 33.8 °F 23% 29.82 in 10.0 mi WNW 8.1 mph - N/A   Clear
7:55 PM 75.2 °F 33.8 °F 22% 29.83 in 10.0 mi WNW 6.9 mph - N/A   Clear
8:15 PM 68.0 °F 32.0 °F 26% 29.84 in 10.0 mi NW 11.5 mph - N/A   Clear
8:35 PM 68.0 °F 32.0 °F 26% 29.85 in 10.0 mi WNW 8.1 mph - N/A   Clear
8:55 PM 66.2 °F 28.4 °F 24% 29.85 in 10.0 mi WNW 10.4 mph - N/A   Clear
9:15 PM 66.2 °F 26.6 °F 23% 29.86 in 10.0 mi WNW 9.2 mph - N/A   Clear
9:35 PM 64.4 °F 24.8 °F 22% 29.86 in 10.0 mi West 10.4 mph - N/A   Clear
9:55 PM 62.6 °F 24.8 °F 24% 29.86 in 10.0 mi West 11.5 mph - N/A   Clear
10:15 PM 64.4 °F 24.8 °F 22% 29.86 in 10.0 mi West 11.5 mph - N/A   Clear
10:35 PM 62.6 °F 24.8 °F 24% 29.86 in 10.0 mi West 10.4 mph - N/A   Clear
10:55 PM 62.6 °F 23.0 °F 22% 29.87 in 10.0 mi West 10.4 mph - N/A   Clear
11:15 PM 62.6 °F 23.0 °F 22% 29.87 in 10.0 mi West 13.8 mph - N/A   Clear
11:35 PM 62.6 °F 23.0 °F 22% 29.87 in 10.0 mi West 12.7 mph - N/A   Clear